Location: Hylvaty SDH
(49.9612°N, 16.4057°E)
Time: 19:12:42
(UTC+02:00)

Courier 1B - Visible Passes

Search period start: 09 August 2020 00:00
Search period end: 19 August 2020 00:00
Orbit: 962 x 1209 km, 28.3° (Epoch: 09 August)

Date Brightness Start Highest point End Pass type
(mag) Time Alt. Az. Time Alt. Az. Time Alt. Az.
09 Aug 9.4 21:56:45 10° SSW 21:58:09 11° S 21:59:15 10° S visible
10 Aug 9.5 21:03:03 10° SSW 21:04:44 11° S 21:06:25 10° SSE visible
11 Aug 9.5 22:03:31 10° SSW 22:03:50 10° S 22:04:10 10° S visible
12 Aug 9.5 21:08:30 10° SSW 21:10:26 11° S 21:12:20 10° S visible
